Overview Statistics Trail Chart Weather Telemetry Raw packets
 

This is the latest recevied weather packets stored in our database for station/object EA5JMY-10. If no packets are shown the sender has not sent any weather packets the latest 10 day(s).

<< 1 2 3 4 5 6 >>
Time Temp. Humidity Pressure Rain* Wind** Luminosity Snow
1788579995 25.56° C 79% 1021.6 hPa - - - -
1788579095 26.11° C 79% 1021.6 hPa - - - -
1788578195 26.11° C 79% 1021.6 hPa - - - -
1788577295 26.11° C 79% 1021.7 hPa - - - -
1788576395 26.67° C 78% 1021.7 hPa - - - -
1788575495 26.67° C 77% 1021.7 hPa - - - -
1788574595 26.67° C 77% 1021.6 hPa - - - -
1788573694 26.67° C 75% 1021.6 hPa - - - -
1788572794 26.67° C 75% 1021.5 hPa - - - -
1788571894 26.67° C 74% 1021.4 hPa - - - -
1788570994 26.67° C 75% 1021.2 hPa - - - -
1788570094 26.11° C 71% 1021.4 hPa - - - -
1788569194 27.22° C 70% 1021.4 hPa - - - -
1788568294 26.11° C 73% 1021.4 hPa - - - -
1788567394 26.67° C 72% 1021.4 hPa - - - -
1788566493 26.67° C 72% 1021.4 hPa - - - -
1788565593 26.67° C 70% 1021.5 hPa - - - -
1788564693 27.22° C 71% 1021.4 hPa - - - -
1788563793 27.22° C 71% 1021.4 hPa - - - -
1788562893 27.22° C 71% 1021.4 hPa - - - -
1788561993 27.22° C 70% 1021.2 hPa - - - -
1788561093 27.78° C 69% 1021.2 hPa - - - -
1788560193 27.78° C 67% 1021 hPa - - - -
1788559292 27.78° C 69% 1021.1 hPa - - - -
1788558392 28.33° C 69% 1021.1 hPa - - - -

* Rain since midnight (hover to see other rain measurements)
** Current wind speed in m/s (hover to see current wind gust speed)